WX5RP Weather Reports


time (UTC)temp
C
wind
direction
speed
KPH
gust
KPH
rain 1hr
cm
rain 24hr
cm
rain mn
cm
humidity
%
barometer
mb
20260506124516 1 0.0 0.0 0.00 0.00 0.00 82 1019.8
20260506123516 1 203 1.6 4.8 0.00 0.00 0.00 82 1019.1
20260506122516 2 203 1.6 3.2 0.00 0.00 0.00 82 1019.7
20260506121516 2 203 4.8 8.0 0.00 0.00 0.00 83 1019.7
20260506120516 1 180 8.0 9.7 0.00 0.00 0.00 82 1019.1
20260506115516 2 180 6.4 8.0 0.00 0.00 0.00 82 1019.2
20260506114516 2 180 3.2 6.4 0.00 0.00 0.00 81 1019.8
20260506113516 2 180 4.8 8.0 0.00 0.00 0.00 81 1019.8
20260506112516 2 180 6.4 8.0 0.00 0.00 0.00 80 1019.5
20260506111516 3 225 3.2 6.4 0.00 0.00 0.00 79 1019.8
20260506110516 3 225 3.2 9.7 0.00 0.00 0.00 82 1019.3
20260506105515 3 203 8.0 9.7 0.00 0.00 0.00 82 1019.3
20260506104516 2 180 6.4 8.0 0.00 0.00 0.00 81 1019.6
20260506103515 2 180 3.2 6.4 0.00 0.00 0.00 82 1019.0
20260506102516 2 113 3.2 3.2 0.00 0.00 0.00 80 1018.3
20260506101518 3 113 3.2 8.0 0.00 0.00 0.00 79 1018.6
20260506100515 4 0.0 0.0 0.00 0.00 0.00 80 1018.5
20260506095515 5 270 1.6 3.2 0.00 0.00 0.00 78 1018.8
20260506094515 5 270 4.8 8.0 0.00 0.00 0.00 79 1018.8
20260506093515 5 270 4.8 8.0 0.00 0.00 0.00 80 1018.7
20260506092515 5 270 4.8 8.0 0.00 0.00 0.00 80 1018.7
20260506091515 5 315 1.6 3.2 0.00 0.00 0.00 80 1019.0
20260506090515 5 225 3.2 8.0 0.00 0.00 0.00 79 1018.8
20260506085517 5 225 1.6 3.2 0.00 0.00 0.00 78 1018.6
20260506084517 5 0.0 1.6 0.00 0.00 0.00 76 1018.6
20260506083517 6 225 3.2 6.4 0.00 0.00 0.00 76 1018.2
20260506082517 6 135 4.8 8.0 0.00 0.00 0.00 78 1017.9
20260506081517 6 135 3.2 4.8 0.00 0.00 0.00 78 1018.2
20260506080517 6 135 4.8 8.0 0.00 0.00 0.00 78 1018.8
20260506073517 6 203 4.8 6.4 0.00 0.00 0.00 77 1018.0
20260506072517 6 203 8.0 9.7 0.00 0.00 0.00 75 1018.2
20260506071516 6 180 8.0 9.7 0.00 0.00 0.00 74 1017.9
20260506070516 6 180 4.8 8.0 0.00 0.00 0.00 73 1018.0
20260506062517 7 158 4.8 8.0 0.00 0.00 0.00 74 1016.6
20260506061516 7 158 6.4 9.7 0.00 0.00 0.00 75 1016.6
20260506060516 7 180 6.4 8.0 0.00 0.00 0.00 75 1017.5
20260506050516 11 315 6.4 8.0 0.00 0.00 0.00 57 1016.2
20260506044516 12 338 9.7 11.3 0.00 0.00 0.00 52 1016.1
20260506043519 12 338 8.0 9.7 0.00 0.00 0.00 52 1015.7
20260506042516 12 338 8.0 9.7 0.00 0.00 0.00 52 1015.1
20260506041516 12 338 9.7 11.3 0.00 0.00 0.00 51 1015.1
20260506040516 13 0 9.7 12.9 0.00 0.00 0.00 50 1015.8
20260506035515 13 338 9.7 11.3 0.00 0.00 0.00 49 1015.3
20260506034515 14 338 9.7 11.3 0.00 0.00 0.00 52 1015.3
20260506033515 15 338 9.7 12.9 0.00 0.00 0.00 44 1014.6
20260506032515 17 0 9.7 11.3 0.00 0.00 0.00 42 1013.9
20260506031516 17 338 14.5 20.9 0.00 0.00 0.00 39 1013.9
20260506030515 17 338 12.9 19.3 0.00 0.00 0.00 39 1014.7
20260506025515 18 338 11.3 14.5 0.00 0.00 0.00 39 1014.3
20260506024515 18 338 11.3 17.7 0.00 0.00 0.00 36 1014.3
20260506023515 19 338 14.5 20.9 0.00 0.00 0.00 37 1013.5
20260506022515 20 338 16.1 22.5 0.00 0.00 0.00 35 1013.3
20260506021515 20 0 19.3 25.7 0.00 0.00 0.00 36 1013.1
20260506020516 20 0 20.9 32.2 0.00 0.00 0.00 34 1014.1
20260506015516 21 0 17.7 25.7 0.00 0.00 0.00 35 1013.5
20260506014516 21 0 17.7 29.0 0.00 0.00 0.00 32 1013.5
20260506013516 21 0 16.1 24.1 0.00 0.00 0.00 35 1013.4
20260506012516 21 0 20.9 32.2 0.00 0.00 0.00 34 1012.9
20260506011516 21 338 22.5 32.2 0.00 0.00 0.00 32 1012.9
20260506010516 21 0 20.9 29.0 0.00 0.00 0.00 34 1013.6
20260506005516 21 0 22.5 32.2 0.00 0.00 0.00 34 1013.5
20260506004516 22 0 24.1 35.4 0.00 0.00 0.00 33 1013.5
20260506003516 21 0 20.9 32.2 0.00 0.00 0.00 38 1013.5
20260506002516 21 23 22.5 30.6 0.00 0.00 0.00 38 1013.5
20260506001516 22 0 19.3 29.0 0.00 0.00 0.00 35 1013.4
20260506000516 21 0 17.7 25.7 0.00 0.00 0.00 37 1013.4
20260505235516 21 0 14.5 19.3 0.00 0.00 0.00 40 1013.2
20260505234515 22 0 16.1 24.1 0.00 0.00 0.00 33 1013.4
20260505233516 23 0 17.7 25.7 0.00 0.00 0.00 32 1013.1
20260505232515 23 0 16.1 30.6 0.00 0.00 0.00 32 1013.5
20260505231516 22 23 19.3 30.6 0.00 0.00 0.00 36 1013.2
20260505230515 23 23 19.3 32.2 0.00 0.00 0.00 34 1013.5
20260505225515 22 23 20.9 37.0 0.00 0.00 0.00 34 1013.4
20260505224515 23 23 17.7 32.2 0.00 0.00 0.00 31 1013.7
20260505223515 23 338 17.7 30.6 0.00 0.00 0.00 27 1014.0
20260505222515 22 338 12.9 24.1 0.00 0.00 0.00 33 1014.3
20260505221515 21 23 16.1 22.5 0.00 0.00 0.00 35 1014.0
20260505220518 22 23 14.5 20.9 0.00 0.00 0.00 35 1013.5
20260505215517 22 23 9.7 14.5 0.00 0.00 0.00 32 1014.3
20260505214517 21 0 14.5 24.1 0.00 0.00 0.00 32 1014.0
20260505213517 22 0 14.5 24.1 0.00 0.00 0.00 33 1014.0
20260505212517 22 0 12.9 22.5 0.00 0.00 0.00 33 1013.7
20260505211517 23 0 11.3 22.5 0.00 0.00 0.00 30 1013.9
20260505210517 24 23 12.9 20.9 0.00 0.00 0.00 27 1013.9
20260505205517 23 0 11.3 20.9 0.00 0.00 0.00 30 1014.2
20260505204517 23 23 17.7 24.1 0.00 0.00 0.00 32 1014.3
20260505203517 23 0 9.7 19.3 0.00 0.00 0.00 29 1014.2
20260505202517 21 338 14.5 20.9 0.00 0.00 0.00 30 1014.2
20260505201516 21 0 14.5 22.5 0.00 0.00 0.00 35 1014.3
20260505200517 22 23 17.7 29.0 0.00 0.00 0.00 35 1014.0
20260505195516 22 23 12.9 22.5 0.00 0.00 0.00 29 1014.0
20260505194517 22 338 17.7 29.0 0.00 0.00 0.00 29 1014.0
20260505193516 21 23 9.7 17.7 0.00 0.00 0.00 32 1014.0
20260505192517 22 23 14.5 20.9 0.00 0.00 0.00 32 1014.3
20260505191517 22 23 16.1 25.7 0.00 0.00 0.00 37 1015.0
20260505190517 21 0 14.5 22.5 0.00 0.00 0.00 32 1013.8
20260505185516 21 23 12.9 19.3 0.00 0.00 0.00 35 1013.4
20260505184516 21 0 17.7 24.1 0.00 0.00 0.00 33 1013.7
20260505183516 20 0 14.5 20.9 0.00 0.00 0.00 41 1014.1
20260505182516 20 23 17.7 25.7 0.00 0.00 0.00 39 1014.6
20260505181516 20 0 14.5 22.5 0.00 0.00 0.00 37 1014.8
20260505180516 19 23 9.7 12.9 0.00 0.00 0.00 40 1014.4
20260505175516 20 23 12.9 20.9 0.00 0.00 0.00 42 1013.8
20260505174516 20 23 11.3 22.5 0.00 0.00 0.00 42 1014.1
20260505173516 20 23 4.8 25.7 0.00 0.00 0.00 41 1014.3
20260505172516 19 338 6.4 14.5 0.00 0.00 0.00 41 1014.7
20260505171516 18 315 8.0 11.3 0.00 0.00 0.00 45 1014.8
20260505170516 18 0 8.0 14.5 0.00 0.00 0.00 44 1014.2
20260505165516 17 203 4.8 11.3 0.00 0.00 0.00 45 1014.6
20260505164515 17 270 6.4 11.3 0.00 0.00 0.00 46 1014.0
20260505163517 16 270 6.4 12.9 0.00 0.00 0.00 46 1014.1
20260505162515 16 270 6.4 11.3 0.00 0.00 0.00 49 1014.4
20260505161516 15 248 4.8 9.7 0.00 0.00 0.00 51 1014.1
20260505160515 14 203 8.0 14.5 0.00 0.00 0.00 53 1014.4
20260505152516 11 203 9.7 12.9 0.00 0.00 0.00 64 1014.6
20260505151515 11 180 9.7 12.9 0.00 0.00 0.00 66 1014.6
20260505150515 10 180 8.0 12.9 0.00 0.00 0.00 67 1014.2
20260505140518 6 180 6.4 11.3 0.00 0.00 0.00 79 1013.7